Location: Bournan
(47.0620°N, 0.7288°E)
Time: 19:56:28
(UTC+00:00)

Daily predictions for brighter satellites

Satellite Brightness Start Highest point End
(mag) Time Altitude Azimuth Time Altitude Azimuth Time Altitude Azimuth
Cosmos 1763 Rocket 3.7 16:48:00 10° NNW 16:53:03 48° ENE 16:58:01 10° SE
SL-16 R/B 2.6 16:47:23 10° NNE 16:53:42 89° ESE 16:59:57 10° SSW
Landsat 7 4.3 16:49:40 10° SE 16:53:55 37° ENE 16:58:13 10° N
SAR-Lupe-5 4.2 16:52:58 10° NNE 16:55:35 73° ESE 16:58:15 10° S
Timation 1 Rocket 4.5 16:52:44 10° NNW 16:58:35 53° NE 17:04:24 10° SE
Cosmos 1140 Rocket 3.5 16:53:25 10° SSW 16:58:36 85° ESE 17:03:46 10° NNE
RESURS DK-1 2.6 16:54:46 10° NNW 16:58:38 45° ENE 17:02:29 10° SE
Aureole 3 Rocket 3.8 16:57:57 10° SE 17:00:06 18° E 17:02:21 10° NE
CZ-4C R/B 3.6 16:56:12 10° W 17:00:11 26° NNW 17:05:03 10° NNE
UNK 3.8 17:02:00 10° NNE 17:06:37 64° ESE 17:11:10 10° S
Meteor 1-28 Rocket 3.2 17:03:21 10° N 17:06:43 69° WNW 17:10:04 10° SSW
Cosmos 1400 Rocket 4.4 17:07:21 10° ESE 17:09:30 15° E 17:11:07 12° ENE
Meteor 2-12 Rocket 4.5 17:03:43 10° N 17:09:44 57° ENE 17:15:40 10° SSE
SJ-12 3.9 17:06:37 10° SE 17:10:15 47° ENE 17:13:55 10° N
SAR-Lupe-3 4.5 17:13:56 10° NNE 17:16:24 33° E 17:18:48 10° SSE
Helios 1A Rocket 4.4 17:16:48 12° E 17:16:48 12° E 17:17:51 10° ESE
Okean 2 Rocket 4.4 17:13:47 10° SE 17:16:53 19° E 17:19:58 10° NE
CORIOLIS 4.2 17:14:28 10° SSE 17:19:50 88° WSW 17:25:13 10° NNW
IRS-1C 4.1 17:16:02 10° SSE 17:21:20 76° ENE 17:26:40 10° NNW
SL-12 R/B(2) 4.3 17:17:24 10° SSW 17:25:15 75° ESE 17:34:53 10° NE
COSMO-SKYMED 1 3.7 17:26:49 16° ENE 17:28:28 20° E 17:31:32 10° SE
Resurs 01 Rocket 3.7 17:30:11 10° NE 17:30:11 10° NE 17:30:16 10° NE
Thor Agena Rocket 4.3 17:23:23 10° S 17:28:34 59° WSW 17:33:47 10° NNW
Cosmos 1943 Rocket 2.1 17:23:27 10° SSW 17:29:01 71° ESE 17:34:36 10° NNE
Timation 2 Rocket 4.2 17:23:28 10° SSW 17:30:19 78° ESE 17:37:11 10° NNE
Cosmos 2251 Rocket 3.7 17:28:04 10° S 17:33:08 50° ESE 17:38:17 10° NNE
Cosmos 841 Rocket 4.2 17:29:00 10° N 17:33:42 31° ENE 17:38:21 10° ESE
Cosmos 2058 3.0 17:30:31 10° N 17:34:23 47° ENE 17:38:13 10° SSE
BREEZE-M DEB (TANK) 2.0 17:34:12 10° WSW 17:36:36 85° SSE 17:39:49 20° ENE
ATLAS 2AS CENTAUR R/B 3.6 17:33:03 10° NNW 17:38:48 28° NNE 17:42:14 19° ENE
Cosmos 2082 Rocket 2.2 17:33:21 10° NNW 17:38:57 62° ENE 17:44:30 10° SE
Cosmos 2278 Rocket 2.2 17:36:51 10° SSW 17:42:31 84° ESE 17:48:12 10° NNE
IRAS Rocket 4.5 17:37:46 10° SE 17:43:01 45° ENE 17:48:15 10° N
MOS 1 Rocket 3.0 17:40:46 10° SSE 17:45:03 69° ENE 17:49:34 10° N
Cosmos 1602 3.0 17:42:36 10° N 17:45:40 66° E 17:48:42 10° SSE
Cosmos 1975 Rocket 4.3 17:44:05 10° NNW 17:48:13 43° W 17:52:21 10° SSW
Cosmos 468 Rocket 3.9 17:43:00 10° NNW 17:48:14 75° ENE 17:53:22 10° SSE
AQUARIUS 4.2 17:43:55 10° SSE 17:48:19 83° WSW 17:52:46 10° NNW
Cosmos 1464 Rocket 4.0 17:43:10 10° SSE 17:49:16 56° E 17:55:21 10° NNE
ARIANE 5 R/B 3.0 17:45:08 10° S 17:50:03 61° WSW 17:55:01 10° NNW
CZ-2D R/B 3.5 17:46:51 10° SSE 17:50:52 53° ENE 17:54:59 10° N
Cosmos 2369 Rocket 4.1 17:49:27 10° SE 17:50:08 12° ESE 17:50:08 12° ESE
ATLAS 5 CENTAUR R/B 4.3 17:50:57 10° WNW 17:54:44 24° WSW 17:59:08 10° S
USA 215 3.6 17:48:28 10° SE 17:54:57 67° SW 18:01:29 10° NW
PSLV R/B 3.7 17:52:53 10° SE 17:56:41 42° ENE 18:00:31 10° N
Cosmos 1862 3.0 17:53:13 10° N 17:56:49 60° E 18:00:24 10° SSE
Geosat FO 3.8 17:57:42 32° SE 17:58:53 75° ENE 18:01:46 10° NNW
Cosmos 2151 Rocket 3.5 17:55:26 10° S 17:59:52 65° E 18:04:20 10° NNE
Cosmos 1190 Rocket 3.9 17:55:39 10° SSW 18:00:54 72° ESE 18:05:26 14° NNE
ISS -3.4 17:59:50 10° W 18:03:08 54° NNW 18:03:52 43° NNE
Cosmos 2034 Rocket 4.1 17:57:22 10° SSE 18:03:15 48° E 18:09:15 10° NNE
Cosmos 676 Rocket 4.2 17:59:00 10° S 18:04:04 48° ESE 18:06:42 26° NE
Cosmos 1812 2.8 18:01:19 10° SSW 18:04:08 50° WNW 18:06:20 15° N
Okean 1 Rocket 3.2 18:02:20 10° SSE 18:06:34 48° E 18:08:25 29° NE
Cosmos 1656 Rocket 4.2 18:01:41 10° S 18:06:42 36° ESE 18:07:59 32° ENE
SKYMED 2 3.4 18:03:51 10° NNE 18:08:12 74° ESE 18:12:32 10° S
Cosmos 407 Rocket 4.4 18:06:27 10° SW 18:11:25 46° WNW 18:16:23 10° NNE
Sich 1 Rocket 3.6 18:07:52 10° S 18:12:18 58° E 18:14:56 24° NNE
USA 281 3.9 18:11:29 29° ENE 18:12:46 31° NE 18:18:24 10° N
Cosmos 1954 Rocket 3.9 18:08:04 10° SSW 18:13:19 75° ESE 18:16:53 21° NNE
COSMOS 2406 3.1 18:08:58 10° NNW 18:14:38 65° ENE 18:19:01 17° SE
BlueWalker 3 3.6 18:13:47 10° S 18:15:40 20° SSE 18:15:40 20° SSE
Cosmos 1092 Rocket 4.2 18:10:52 10° N 18:16:51 45° ENE 18:22:44 10° SSE
SL-19 R/B 3.9 18:12:59 10° SSE 18:18:10 75° ENE 18:23:25 10° NNW
Cosmos 968 Rocket 4.5 18:17:14 10° SSE 18:20:21 28° SE 18:20:21 28° SE
Cosmos 2026 Rocket 4.0 18:15:57 10° N 18:21:55 55° ENE 18:27:56 10° SSE
SJ 16-02 1.2 18:18:16 10° SSW 18:22:35 85° WNW 18:24:29 33° NNE
Cosmos 44 Rocket 3.9 18:18:50 10° SW 18:23:31 52° NW 18:26:14 24° NNE
YAOGAN 1 2.4 18:19:38 10° SSE 18:23:54 87° E 18:28:11 10° NNW
SPOT 1/Viking Rocket 3.8 18:20:29 10° S 18:25:38 71° WSW 18:30:51 10° NNW
Cosmos 2344 3.9 18:24:34 10° NW 18:32:24 67° NE 18:38:34 26° ESE
Spot 4 Rocket 4.3 18:31:19 10° S 18:36:22 68° WSW 18:41:29 10° NNW
Meteor 2-3 Rocket 3.6 18:32:08 10° N 18:37:51 78° ENE 18:43:28 10° SSE
Resurs 1-3 3.7 18:34:09 10° S 18:38:26 71° WSW 18:42:44 10° NNW
Nadezhda 4 Rocket 4.5 18:38:04 10° NNW 18:44:15 61° W 18:50:20 10° S
Cosmos 1400 Rocket 3.7 18:40:55 10° SSW 18:44:34 44° WNW 18:45:47 32° NNW
Cosmos 304 Rocket 4.0 18:42:43 10° SSW 18:47:25 66° WNW 18:48:46 44° N
Cosmos 371 Rocket 3.5 18:44:29 10° SSW 18:49:15 67° WNW 18:50:35 45° N
Helios 1A Rocket 4.0 18:50:27 33° WSW 18:50:27 33° WSW 18:52:40 10° SW
CZ-4C R/B 4.2 18:46:57 10° NW 18:50:37 17° N 18:51:49 16° NNE
Okean 2 Rocket 4.1 18:50:17 10° SSW 18:54:29 44° WNW 18:57:20 19° N
Cosmos 1627 Rocket 4.3 18:48:32 10° N 18:54:42 89° ENE 19:00:53 10° S
COSMO-SKYMED 1 3.7 19:03:11 36° NW 19:03:57 40° WNW 19:07:49 10° SW
Resurs 01 Rocket 3.8 19:07:36 17° NNW 19:07:36 17° NNW 19:08:37 10° NNW
Geosat 4.0 19:05:27 76° WNW 19:05:27 76° WNW 19:10:13 10° NNW
BREEZE-M DEB (TANK) 4.4 18:59:38 10° WNW 19:11:33 53° SSW 19:12:27 48° S
BREEZE-M DEB (TANK) 3.8 19:08:19 10° W 19:11:47 74° N 19:11:47 74° N
Cosmos 1943 Rocket 4.1 19:08:50 10° W 19:13:18 24° NW 19:16:48 14° N
Cosmos 2082 Rocket 4.4 19:18:17 10° NW 19:22:31 22° WSW 19:26:44 10° SSW
Cosmos 2278 Rocket 4.3 19:23:05 10° W 19:27:19 21° NW 19:30:23 14° N
ATLAS 2AS CENTAUR R/B 2.8 19:23:54 10° NW 19:29:41 65° NNW 19:29:41 65° NNW
Cosmos 1634 Rocket 4.2 19:28:43 10° SSW 19:42:28 - N 19:34:50 66° W
Cosmos 2369 Rocket 3.9 19:29:57 10° SSW 19:31:59 23° SSW 19:31:59 23° SSW
USA 281 3.8 19:58:22 52° WNW 19:58:22 52° WNW 20:03:26 10° NNW
SJ 16-02 4.4 19:59:47 10° WNW 20:01:03 12° NW 20:01:03 12° NW
